Hourly Weather Klejwy

Today, 30 July, Friday

Time Temperature Precipitation Wind Pressure Humidity
00:00 +17°C° 0 mm 3 mps 743 mmHg 84%
01:00 +17°C° 0 mm 3 mps 743 mmHg 84%
02:00 +17°C° 0 mm 3 mps 743 mmHg 84%
03:00 +16°C° 0 mm 3 mps 743 mmHg 86%
04:00 +14°C° 0 mm 3 mps 743 mmHg 88%
05:00 +14°C° 0 mm 3 mps 743 mmHg 91%
06:00 +15°C° 0 mm 4 mps 743 mmHg 81%
07:00 +18°C° 0 mm 4 mps 743 mmHg 72%
08:00 +19°C° 0 mm 5 mps 743 mmHg 63%
09:00 +20°C° 0 mm 5 mps 743 mmHg 57%
10:00 +21°C° 0 mm 6 mps 743 mmHg 52%
11:00 +23°C° 0 mm 6 mps 743 mmHg 46%
12:00 +23°C° 0 mm 7 mps 743 mmHg 44%
13:00 +24°C° 0 mm 7 mps 742 mmHg 42%
14:00 +24°C° 0 mm 7 mps 742 mmHg 40%
15:00 +24°C° 0 mm 7 mps 742 mmHg 42%
16:00 +24°C° 0 mm 6 mps 742 mmHg 44%
17:00 +24°C° 0 mm 6 mps 741 mmHg 45%
18:00 +22°C° 0 mm 5 mps 741 mmHg 51%
19:00 +21°C° 0 mm 4 mps 741 mmHg 56%
20:00 +19°C° 0 mm 3 mps 741 mmHg 62%
21:00 +18°C° 0 mm 3 mps 741 mmHg 65%
22:00 +17°C° 0 mm 3 mps 741 mmHg 68%
23:00 +16°C° 0 mm 3 mps 741 mmHg 72%

Tomorrow, 31 July, Saturday

Time Temperature Precipitation Wind Pressure Humidity
00:00 +16°C° 0 mm 3 mps 741 mmHg 73%
01:00 +14°C° 0 mm 3 mps 741 mmHg 75%
02:00 +14°C° 0 mm 3 mps 742 mmHg 76%
03:00 +13°C° 0 mm 3 mps 742 mmHg 76%
04:00 +13°C° 0 mm 3 mps 742 mmHg 77%
05:00 +13°C° 0 mm 3 mps 742 mmHg 77%
06:00 +14°C° 0 mm 3 mps 742 mmHg 72%
07:00 +17°C° 0 mm 3 mps 742 mmHg 67%
08:00 +19°C° 0 mm 4 mps 742 mmHg 63%
09:00 +20°C° 0 mm 4 mps 742 mmHg 58%
10:00 +22°C° 0 mm 4 mps 743 mmHg 53%
11:00 +23°C° 0 mm 4 mps 743 mmHg 49%
12:00 +25°C° 0 mm 4 mps 742 mmHg 48%
13:00 +26°C° 0 mm 4 mps 742 mmHg 47%
14:00 +27°C° 0 mm 4 mps 742 mmHg 45%
15:00 +27°C° 0 mm 3 mps 742 mmHg 46%
16:00 +27°C° 0 mm 3 mps 741 mmHg 47%
17:00 +27°C° 0 mm 2 mps 741 mmHg 48%
18:00 +26°C° 0 mm 2 mps 741 mmHg 54%
19:00 +24°C° 0 mm 2 mps 741 mmHg 59%
20:00 +23°C° 0 mm 1 mps 740 mmHg 65%
21:00 +21°C° 0.5 mm 2 mps 740 mmHg 74%
22:00 +20°C° 0.5 mm 2 mps 741 mmHg 84%
23:00 +18°C° 0.5 mm 3 mps 741 mmHg 93%

Day after tomorrow, 1 August, Sunday

Time Temperature Precipitation Wind Pressure Humidity
00:00 +18°C° 0.1 mm 3 mps 741 mmHg 94%
01:00 +17°C° 0.1 mm 3 mps 741 mmHg 94%
02:00 +17°C° 0.1 mm 3 mps 741 mmHg 95%
03:00 +16°C° 0 mm 3 mps 741 mmHg 94%
04:00 +14°C° 0 mm 3 mps 741 mmHg 93%
05:00 +14°C° 0 mm 3 mps 741 mmHg 92%
06:00 +15°C° 0 mm 4 mps 742 mmHg 86%
07:00 +17°C° 0 mm 4 mps 742 mmHg 80%
08:00 +19°C° 0 mm 5 mps 742 mmHg 74%
09:00 +20°C° 0 mm 5 mps 742 mmHg 67%
10:00 +21°C° 0 mm 5 mps 743 mmHg 60%
11:00 +23°C° 0 mm 5 mps 743 mmHg 52%
12:00 +25°C° 0 mm 5 mps 743 mmHg 50%
13:00 +25°C° 0 mm 5 mps 743 mmHg 49%
14:00 +26°C° 0 mm 5 mps 743 mmHg 47%
15:00 +25°C° 0 mm 4 mps 743 mmHg 52%
16:00 +24°C° 0 mm 3 mps 743 mmHg 56%
17:00 +22°C° 0 mm 3 mps 743 mmHg 61%
18:00 +20°C° 0.3 mm 3 mps 743 mmHg 69%
19:00 +18°C° 0.3 mm 2 mps 743 mmHg 78%
20:00 +16°C° 0.3 mm 2 mps 742 mmHg 86%
21:00 +16°C° 1.2 mm 2 mps 742 mmHg 88%
22:00 +15°C° 1.2 mm 1 mps 743 mmHg 91%
23:00 +15°C° 1.2 mm 1 mps 743 mmHg 93%

2 August, Monday

Time Temperature Precipitation Wind Pressure Humidity
00:00 +15°C° 0.5 mm 1 mps 742 mmHg 93%
01:00 +15°C° 0.5 mm 1 mps 742 mmHg 94%
02:00 +15°C° 0.5 mm 1 mps 742 mmHg 95%
03:00 +15°C° 0.1 mm 1 mps 742 mmHg 94%
04:00 +15°C° 0.1 mm 1 mps 741 mmHg 93%
05:00 +15°C° 0.1 mm 1 mps 741 mmHg 93%
06:00 +15°C° 0.4 mm 2 mps 741 mmHg 94%
07:00 +15°C° 0.4 mm 2 mps 741 mmHg 96%
08:00 +14°C° 0.4 mm 2 mps 741 mmHg 97%
09:00 +15°C° 1.2 mm 2 mps 741 mmHg 96%
10:00 +15°C° 1.2 mm 2 mps 742 mmHg 94%
11:00 +16°C° 1.2 mm 2 mps 742 mmHg 93%
12:00 +17°C° 0.2 mm 2 mps 742 mmHg 86%
13:00 +18°C° 0.2 mm 2 mps 742 mmHg 79%
14:00 +19°C° 0.2 mm 3 mps 743 mmHg 72%
15:00 +19°C° 0.3 mm 3 mps 742 mmHg 73%
16:00 +20°C° 0.3 mm 3 mps 742 mmHg 74%
17:00 +20°C° 0.3 mm 3 mps 742 mmHg 75%
18:00 +19°C° 0.5 mm 3 mps 742 mmHg 79%
19:00 +18°C° 0.5 mm 3 mps 742 mmHg 84%
20:00 +16°C° 0.5 mm 2 mps 742 mmHg 89%
21:00 +16°C° 0.2 mm 2 mps 743 mmHg 91%
22:00 +15°C° 0.2 mm 2 mps 743 mmHg 93%
23:00 +14°C° 0.2 mm 2 mps 743 mmHg 95%

3 August, Tuesday

Time Temperature Precipitation Wind Pressure Humidity
00:00 +13°C° 0 mm 3 mps 743 mmHg 95%
01:00 +13°C° 0 mm 3 mps 743 mmHg 94%
02:00 +13°C° 0 mm 3 mps 743 mmHg 93%
03:00 +12°C° 0 mm 3 mps 744 mmHg 93%
04:00 +11°C° 0 mm 4 mps 744 mmHg 92%
05:00 +11°C° 0 mm 4 mps 744 mmHg 92%
06:00 +12°C° 0 mm 4 mps 744 mmHg 89%
07:00 +13°C° 0 mm 5 mps 744 mmHg 86%
08:00 +15°C° 0 mm 6 mps 744 mmHg 82%
09:00 +16°C° 0.1 mm 6 mps 745 mmHg 76%
10:00 +19°C° 0.1 mm 6 mps 745 mmHg 70%
11:00 +20°C° 0.1 mm 6 mps 745 mmHg 64%
12:00 +21°C° 0.2 mm 6 mps 745 mmHg 63%
13:00 +21°C° 0.2 mm 6 mps 745 mmHg 61%
14:00 +21°C° 0.2 mm 6 mps 746 mmHg 59%
15:00 +22°C° 0.2 mm 6 mps 746 mmHg 58%
16:00 +22°C° 0.2 mm 5 mps 746 mmHg 57%
17:00 +22°C° 0.2 mm 4 mps 746 mmHg 56%
18:00 +20°C° 0 mm 4 mps 746 mmHg 63%
19:00 +18°C° 0 mm 4 mps 747 mmHg 70%
20:00 +17°C° 0 mm 3 mps 747 mmHg 78%
21:00 +16°C° 0 mm 3 mps 747 mmHg 82%
22:00 +14°C° 0 mm 3 mps 748 mmHg 87%
23:00 +14°C° 0 mm 2 mps 748 mmHg 92%

4 August, Wednesday

Time Temperature Precipitation Wind Pressure Humidity
00:00 +13°C° 0 mm 2 mps 748 mmHg 91%
01:00 +13°C° 0 mm 2 mps 748 mmHg 91%
02:00 +13°C° 0 mm 1 mps 749 mmHg 90%
03:00 +13°C° 0 mm 1 mps 749 mmHg 89%
04:00 +11°C° 0 mm 0 mps 749 mmHg 88%
05:00 +11°C° 0 mm 0 mps 749 mmHg 87%
06:00 +13°C° 0 mm 0 mps 749 mmHg 82%
07:00 +15°C° 0 mm 0 mps 750 mmHg 76%
08:00 +16°C° 0 mm 0 mps 750 mmHg 70%
09:00 +18°C° 0 mm 0 mps 750 mmHg 65%
10:00 +20°C° 0 mm 0 mps 750 mmHg 59%
11:00 +21°C° 0 mm 0 mps 750 mmHg 53%
12:00 +22°C° 0 mm 0 mps 750 mmHg 51%
13:00 +22°C° 0 mm 0 mps 749 mmHg 50%
14:00 +25°C° 0 mm 1 mps 749 mmHg 49%
15:00 +24°C° 0 mm 1 mps 749 mmHg 53%
16:00 +23°C° 0 mm 1 mps 749 mmHg 57%
17:00 +22°C° 0 mm 1 mps 749 mmHg 61%
18:00 +22°C° 0 mm 1 mps 749 mmHg 63%
19:00 +21°C° 0 mm 1 mps 749 mmHg 65%
20:00 +20°C° 0 mm 1 mps 749 mmHg 67%
21:00 +19°C° 0 mm 1 mps 749 mmHg 70%
22:00 +18°C° 0 mm 1 mps 749 mmHg 72%
23:00 +17°C° 0 mm 2 mps 749 mmHg 75%
Show more